Overview Statistics Trail Chart Weather Telemetry Raw packets
 

This is the latest recevied weather packets stored in our database for station/object WP3OF-2. If no packets are shown the sender has not sent any weather packets the latest 10 day(s).

<< 13 14 15 16 17 18 19 >>
Time Temp. Humidity Pressure Rain* Wind** Luminosity Snow
1788546123 26.11° C 81% 1025.6 hPa 0 mm - 713 W/m² -
1788545819 25.56° C 82% 1025.6 hPa 0 mm - 707 W/m² -
1788545518 25.56° C 82% 1025.6 hPa 0 mm - 755 W/m² -
1788545214 25° C 83% 1025.6 hPa 0 mm - 770 W/m² -
1788544909 24.44° C 86% 1025.6 hPa 0 mm - 793 W/m² -
1788544626 25° C 85% 1026 hPa 0 mm - 348 W/m² -
1788544307 25° C 85% 1026 hPa 0 mm - 803 W/m² -
1788544001 25.56° C 85% 1026 hPa 0 mm - 819 W/m² -
1788543698 25° C 87% 1026 hPa 0 mm - 853 W/m² -
1788543393 25.56° C 86% 1026 hPa 0 mm - 565 W/m² -
1788543083 25.56° C 83% 1026 hPa 0 mm - 861 W/m² -
1788542779 25.56° C 86% 1026.3 hPa 0 mm - 833 W/m² -
1788542478 25° C 87% 1026.3 hPa 0 mm - 882 W/m² -
1788542173 25° C 85% 1026 hPa 0 mm - 895 W/m² -
1788541869 25.56° C 82% 1026 hPa 0 mm - 843 W/m² -
1788541564 26.11° C 82% 1026.3 hPa 0 mm - 923 W/m² -
1788541261 25° C 85% 1026.3 hPa 0 mm - 930 W/m² -
1788540959 25° C 84% 1026.3 hPa 0 mm - 335 W/m² -
1788540658 25.56° C 83% 1026.3 hPa 0 mm - 884 W/m² -
1788540353 24.44° C 85% 1026.7 hPa 0 mm - 662 W/m² -
1788540049 24.44° C 86% 1026.3 hPa 0 mm - 726 W/m² -
1788539777 24.44° C 88% 1026.3 hPa 0 mm - 511 W/m² -
1788539438 23.89° C 88% 1026.3 hPa 0 mm - 683 W/m² -
1788539133 25° C 87% 1026.7 hPa 0 mm - 739 W/m² -
1788538828 24.44° C 88% 1026.7 hPa 0 mm - 848 W/m² -

* Rain latest hour (hover to see other rain measurements)
** Current wind speed in m/s (hover to see current wind gust speed)